Location: *
(16.3484°S, 99.3983°W)
Time: 04:37:01
(UTC+00:00)

Daily predictions for brighter satellites

Satellite Brightness Start Highest point End
(mag) Time Altitude Azimuth Time Altitude Azimuth Time Altitude Azimuth
CORIOLIS 4.3 00:54:00 10° SSE 00:59:25 88° WSW 01:04:45 10° NNW
Palapa B4 Rocket 3.8 00:58:27 10° W 01:04:33 59° S 01:08:42 10° ESE
Cosmos 482 Debris 3.6 01:00:36 10° SW 01:04:33 83° SE 01:07:03 10° NE
Cosmos 1758 Rocket 4.4 01:01:11 10° NNW 01:05:24 55° W 01:09:39 10° S
H-2A ROCKET BODY 3.8 01:03:58 10° SW 01:09:02 56° SSE 01:29:54 13° ENE
Feng Yun 1-1 Rocket 4.4 01:05:16 10° SSE 01:10:51 58° ENE 01:16:32 10° N
COSMOS 2487 2.3 01:07:47 10° N 01:11:11 78° ENE 01:14:37 10° SSE
CZ-4 R/B 2.6 01:08:36 10° SE 01:11:48 22° E 01:14:55 10° NNE
Intelsat 5-3 Rocket 3.5 01:15:38 10° SW 01:17:16 17° S 01:19:14 10° SE
GPS 2-17 Rocket1 3.7 01:14:04 10° W 01:18:25 44° NNW 01:22:12 12° NE
ATLAS 3B CENTAUR R/B 2.3 01:15:20 10° WSW 01:19:26 86° SSE 01:27:21 14° ENE
IUS-1 SRM-2 3.9 01:16:10 10° W 01:19:50 65° NNW 01:33:40 13° ENE
Cosmos 2322 Rocket 2.8 01:19:28 10° S 01:24:40 36° ESE 01:29:18 12° NE
CZ-2C R/B 4.0 01:19:47 10° SE 01:24:49 32° E 01:29:54 10° NNE
EO 1 Delta rocket 4.2 01:20:26 10° NNE 01:25:19 64° ESE 01:31:21 10° S
In-Cosmos 22 Rocket 4.4 01:25:57 10° NNE 01:31:19 50° E 01:36:52 10° SSE
Milstar 3 Cent rocket 3.9 01:20:14 10° NW 01:31:53 37° NNE 01:36:38 18° ENE
CZ-2C R/B 3.5 01:32:22 10° W 01:35:34 20° NW 01:38:40 10° N
CZ-2D R/B 3.2 01:34:13 10° SSE 01:38:07 85° ENE 01:41:57 10° N
BLOCK DM-SL R/B 4.4 01:35:13 10° WNW 01:38:58 31° N 01:43:17 19° ENE
SL-8 R/B 3.7 01:37:42 10° NW 01:42:30 83° SW 01:47:18 10° SE
ARGOS 4.4 01:40:33 10° SE 01:43:47 21° E 01:43:47 21° E
USA 229 DEB 4.3 01:37:06 10° NNW 01:44:51 73° WSW 01:52:30 10° SSE
USA 229 4.2 01:37:11 10° NNW 01:44:56 74° WSW 01:52:36 10° SSE
Cosmos 2058 3.4 01:42:25 16° NNE 01:45:13 37° E 01:49:06 10° SSE
Meteor 1-27 4.5 01:40:17 10° S 01:45:47 47° E 01:49:54 17° NNE
BREEZE-M DEB (TANK) 4.3 01:51:34 10° WSW 01:53:45 27° NW 01:56:58 13° NNE
YAOGAN 1 2.4 01:50:05 10° SSE 01:54:26 72° E 01:58:44 10° N
Cosmos 1892 2.7 01:54:42 10° N 01:58:34 82° W 02:02:27 10° S
NOSS 3-1 (A) 4.5 01:50:17 10° NNW 01:59:19 76° WSW 02:07:56 10° SSE
SL-16 R/B 2.4 01:54:19 10° SSW 01:59:58 72° WNW 02:05:04 13° N
CSL-04 Rocket 3.9 01:56:06 10° SSE 02:01:25 47° ENE 02:06:30 11° N
Cosmos-2242 4.2 01:57:51 10° SSW 02:01:55 43° W 02:05:56 10° NNW
Cosmos 1745 Rocket 3.9 01:55:52 10° N 02:02:12 76° E 02:08:35 10° S
H-2A R/B 2.2 01:57:12 10° SSE 02:02:13 50° E 02:06:45 13° N
Cosmos 972 Rocket 3.8 02:00:35 10° S 02:05:28 67° ESE 02:07:11 39° NNE
Meteosat 1 Rocket2 4.1 02:03:32 10° W 02:06:54 30° NNW 02:07:51 27° N
Cosmos 2333 Rocket 4.1 02:04:43 10° SSE 02:06:38 14° SE 02:06:38 14° SE
GPS 2-15 Rocket1 3.3 02:04:29 10° W 02:09:08 67° S 02:10:28 44° ESE
Cosmos 1408 2.4 02:08:54 66° N 02:09:23 86° E 02:13:08 10° S
Cosmos 1346 Rocket 2.6 02:11:59 70° NNE 02:12:22 80° E 02:16:23 10° S
Cosmos 2221 4.0 02:11:00 10° SSE 02:13:05 24° SE 02:13:05 24° SE
Cosmos 1842 Rocket 4.5 02:12:12 10° SSE 02:15:15 35° SE 02:15:15 35° SE
Cosmos 1386 Rocket 4.5 02:10:48 10° N 02:17:02 83° W 02:23:13 10° S
Cosmos 1076 Rocket 3.4 02:19:50 77° SE 02:19:50 77° SE 02:23:58 10° S
Cosmos 1825 4.3 02:24:19 18° SSE 02:24:19 18° SSE 02:25:21 10° S
Okean-O 4.2 02:18:05 10° S 02:22:09 35° WSW 02:26:11 10° NW
SL-24 DEB 4.1 02:22:50 73° E 02:22:53 73° E 02:27:40 10° S
CZ-2C R/B 4.3 02:19:44 10° NNW 02:24:21 31° W 02:28:55 10° SW
Cosmos 2360 Rocket 2.1 02:20:23 10° SSW 02:26:05 74° ESE 02:26:45 66° ENE
Cosmos 921 Rocket 3.5 02:26:03 10° SSW 02:29:16 52° S 02:29:16 52° S
Cosmos 1709 Rocket 3.9 02:30:24 50° NNE 02:32:06 72° E 02:38:24 10° S
GPS 2-18 Rocket1 4.4 02:29:14 10° WSW 02:32:25 38° SSW 02:32:25 38° SSW
Skynet4D Del rocket 4.5 02:29:12 10° NW 02:37:28 64° NNE 02:38:42 58° ENE
Meteor 2-2 Rocket 4.2 02:32:56 10° S 02:38:37 77° ESE 02:38:37 77° ESE
CZ-4 R/B 4.4 02:44:08 10° SW 02:46:32 15° WSW 02:48:52 10° WNW
Cosmos 2219 Rocket 3.8 02:47:48 10° S 02:50:13 23° SSE 02:50:13 23° SSE
Gbstr 26 Del rocket 4.4 02:51:46 10° NNW 02:59:04 72° N 02:59:04 72° N
Palapa 6 Rocket 4.4 02:58:13 10° WSW 03:04:02 53° SSW 03:04:02 53° SSW
Mugunghwa Rocket 4.5 02:59:36 10° WSW 03:07:48 83° NNW 03:07:49 83° NNW
Cosmos 2297 Rocket 4.0 03:15:25 22° S 03:15:25 22° S 03:17:28 10° S
ATLAS 3B CENTAUR R/B 4.5 03:34:06 10° W 03:39:02 32° NW 03:39:02 32° NW
Cosmos 2333 Rocket 4.5 03:46:50 10° SW 03:48:40 20° SW 03:48:40 20° SW
ATLAS 2A CENTAUR R/B 4.4 03:48:33 10° WNW 04:09:30 51° WNW 04:09:30 51° WNW
Centaur D-1A AC-31 4.4 08:10:09 20° SE 08:10:09 20° SE 08:14:46 10° ESE
Cosmos 2082 Rocket 4.4 08:54:49 10° SSE 08:57:26 20° SE 08:57:26 20° SE
Cosmos 1943 Rocket 4.2 09:11:02 22° SSE 09:11:02 22° SSE 09:12:56 10° SSE
SL-16 R/B 4.2 09:02:18 10° SSE 09:04:44 26° SSE 09:04:44 26° SSE
ATLAS 5 CENTAUR R/B 4.0 09:21:03 32° S 09:21:03 32° S 09:24:55 10° S
Milstar 3 Cent rocket 3.5 09:26:53 45° S 09:28:15 50° SSE 09:39:20 10° E
Atlas Centaur 2 3.9 09:40:19 18° E 09:40:19 18° E 09:41:25 10° E
SL-08 R/B 4.3 09:49:34 10° SSE 09:53:54 39° E 09:54:13 39° ENE
Cosmos 2263 4.2 09:58:05 75° SSE 09:58:05 75° SSE 10:03:13 10° SSE
Cosmos 1626 4.5 10:01:00 10° SSE 10:04:01 23° E 10:06:59 10° NE
Skynet4D Del rocket 3.9 10:10:10 46° SW 10:12:07 73° SSE 10:17:54 10° ENE
CZ-2C R/B 3.1 10:13:50 39° SSW 10:13:50 39° SSW 10:16:45 10° SSW
Cosmos 2369 Rocket 3.1 10:17:47 33° SW 10:17:47 33° SW 10:21:49 10° S
Cosmos 1818 4.5 10:17:40 34° SW 10:17:40 34° SW 10:21:40 10° S
Cosmos 1420 Rocket 3.9 10:20:21 46° N 10:21:56 84° ENE 10:27:12 10° SSE
IUS-13 SRM-1 4.3 10:21:33 21° NNE 10:23:08 27° NE 10:31:55 10° ESE
X-37B 3.1 10:26:48 15° NE 10:26:48 15° NE 10:27:27 10° NE
Hubble Space Telescope 3.2 10:27:20 13° SSW 10:29:28 18° S 10:32:19 10° SE
Cosmos 371 Rocket 4.1 10:32:20 33° SW 10:32:20 33° SW 10:36:03 10° S
Cosmos 1470 2.6 10:31:44 68° NNW 10:32:11 82° W 10:36:12 10° S
SWIFT 3.0 10:32:58 37° SW 10:34:00 46° S 10:38:03 10° ESE
Aurora 2 Rocket 2.8 10:33:35 44° WNW 10:35:24 90° NNE 10:39:50 10° ESE
Meteor 1-24 Rocket 4.1 10:31:03 10° S 10:36:19 60° E 10:41:40 10° NNE
Cosmos 1634 Rocket 3.9 10:31:02 10° N 10:37:17 90° E 10:43:33 10° S
ADEOS 3.5 10:35:03 10° NNE 10:40:15 88° W 10:45:32 10° SSW
GP-B 3.0 10:38:20 10° S 10:42:47 70° W 10:45:57 19° NNW
Cosmos 2082 Rocket 4.2 10:38:29 10° SW 10:39:04 12° SW 10:39:04 12° SW
Cosmos 1484 Rocket 2.6 10:41:33 10° NNE 10:45:15 83° ESE 10:49:00 10° S
GPS 2-12 Rocket1 3.6 10:47:17 25° WSW 10:49:51 56° S 10:54:36 10° E
ATLAS CENTAUR R/B 1.4 10:46:06 10° SSW 10:50:39 66° WNW 10:54:54 10° NNE
ARIANE 5 R/B 4.5 10:47:34 21° WNW 10:52:26 25° NNW 10:57:12 10° NNE
ASTRO E2 3.8 10:58:04 23° WSW 10:59:49 33° SSW 11:03:29 10° SE
Cosmos 1092 Rocket 3.9 10:55:37 10° S 11:01:48 86° W 11:07:56 10° N
H-2A R/B 3.2 10:58:13 10° SSE 11:02:36 47° E 11:06:55 10° N
Delta 198 4.0 10:59:28 23° W 11:03:01 72° SSW 11:07:52 10° ESE
Meteor 2-5 Rocket 3.9 10:59:27 10° SSW 11:04:44 45° W 11:10:01 10° NNW
GPS 2-04 Rocket1 2.4 11:02:52 25° NW 11:04:50 76° NE 11:08:22 10° ESE
Cosmos 1544 Rocket 3.6 11:01:37 10° NNW 11:05:59 58° W 11:10:23 10° S
Nadezhda 4 Rocket 4.3 11:01:00 10° SSW 11:06:43 40° W 11:12:21 10° NNW
Meteor 2-13 Rocket 4.4 11:00:39 10° SSW 11:06:44 62° W 11:12:47 10° N
CZ-4B R/B 3.8 11:02:34 10° NNE 11:06:57 60° ESE 11:11:26 10° S
GPS 2-14 Rocket1 3.5 11:04:34 16° WSW 11:07:13 41° S 11:10:49 10° ESE
Cosmos 614 Rocket 4.1 11:02:54 10° SSW 11:08:00 53° WNW 11:13:02 10° N
Cosmos 1452 Rocket 3.7 11:04:26 11° NNW 11:09:17 51° WSW 11:14:26 10° S
METEOR-M 4.1 11:04:15 10° N 11:09:30 61° WNW 11:14:48 10° SSW
Meteor 1-31 Rocket 2.8 11:06:01 10° N 11:09:50 58° W 11:13:42 10° SSW
ARGOS Delta rocket 4.1 11:07:10 10° NNE 11:12:36 88° E 11:17:52 10° S
Meteor 1-16 Rocket 4.3 11:13:06 10° N 11:18:31 82° E 11:24:11 10° S
Okean 1-7 Rocket 3.7 11:16:47 10° S 11:21:24 90° SE 11:25:57 10° N
Cosmos 1726 3.1 11:19:24 11° NW 11:22:22 26° W 11:25:30 10° SSW
Landsat 5 3.5 11:19:12 10° S 11:23:34 71° WSW 11:27:43 10° NNW
Atlas Centaur 2 2.2 11:22:54 12° W 11:26:16 35° SSW 11:29:39 10° SE
ALOS 3.2 11:22:33 10° NNW 11:26:28 27° W 11:30:26 10° SW
Cosmos 1023 Rocket 4.4 11:22:24 10° SSW 11:27:35 70° WNW 11:32:39 10° N
Cosmos 1190 Rocket 4.0 11:25:26 10° SSW 11:30:44 69° WNW 11:35:58 10° N
Intelsat 5-1 Rocket 3.6 11:27:29 10° WSW 11:31:04 45° SSE 11:39:48 10° E
Cosmos 1892 Rocket 4.1 11:29:03 10° SSW 11:33:04 37° W 11:37:03 10° NNW
Cosmos 1908 3.4 11:41:06 10° NNW 11:44:53 51° W 11:48:42 10° S
FALCON 9 R/B 4.4 10:59:42 10° W 11:45:38 56° S 11:52:13 10° ESE
Cosmos 1331 Rocket 4.1 11:41:27 10° NNW 11:46:39 66° WSW 11:51:56 10° S
